PBO Station Position Time Series. Reference Frame : NAM14
Format Version,1.1.0
4-character ID,KMOR
Station name,Kap_Morton
Begin Date, 2007-09-04
End Date, 2019-10-07
Release Date, 2019-10-08
Reference position, 81.2527145581 North Latitude, -63.5273968953 East Longitude, 203.29841 meters elevation,
Date, North (mm), East (mm), Vertical (mm), North Std. Deviation (mm), East Std. Deviation (mm),              Vertical Std. Deviation (mm), Quality,
2007-09-04,0.00, 0.00, 0.00, 1.80, 1.49, 11.49, repro,
2007-09-05,-1.29, -0.19, -4.05, 1.82, 1.52, 11.63, repro,
2007-09-06,-0.95, 0.27, -16.57, 1.82, 1.52, 11.67, repro,
2007-09-07,-0.40, -0.83, -2.57, 1.86, 1.56, 12.00, repro,
2007-09-08,-0.14, -0.17, -2.81, 1.89, 1.53, 11.94, repro,
2007-09-09,-0.52, 0.85, -5.44, 1.86, 1.53, 11.83, repro,
2007-09-10,-0.89, 0.65, -1.70, 1.80, 1.51, 11.53, repro,
2007-09-11,-0.91, 0.38, -8.11, 1.88, 1.60, 12.05, repro,
2007-09-12,-0.35, 0.04, -10.84, 1.84, 1.52, 11.74, repro,
2007-09-13,0.65, 0.04, -1.45, 1.84, 1.52, 11.76, repro,
2007-09-14,-1.23, -0.04, -9.07, 1.84, 1.51, 11.69, repro,
2007-09-15,-1.13, 0.75, -4.40, 1.87, 1.52, 11.85, repro,
2007-09-16,0.52, -0.18, -8.40, 1.86, 1.55, 11.85, repro,
2007-09-17,-0.74, -0.24, -6.22, 1.84, 1.54, 11.75, repro,
2007-09-18,-0.03, -1.46, -2.04, 1.81, 1.48, 11.50, repro,
2007-09-19,-0.68, -0.87, -3.83, 1.78, 1.46, 11.24, repro,
2007-09-20,-0.27, 0.69, -0.38, 1.79, 1.45, 11.27, repro,
2007-09-21,0.07, 0.33, -4.11, 1.76, 1.46, 11.15, repro,
2007-09-22,-1.89, 1.14, -12.41, 1.77, 1.48, 11.32, repro,
2007-09-23,0.52, 0.18, -3.90, 1.79, 1.48, 11.42, repro,
2007-09-24,1.46, -0.31, -1.34, 1.80, 1.51, 11.41, repro,
2007-09-25,0.08, 1.33, -7.34, 1.80, 1.48, 11.48, repro,
2007-09-26,0.94, -0.66, -1.53, 1.77, 1.47, 11.23, repro,
2007-09-27,-0.16, -0.49, -7.52, 1.81, 1.50, 11.57, repro,
2007-09-28,-0.43, 0.49, -9.22, 1.81, 1.49, 11.54, repro,
2007-09-29,-1.69, 0.85, -6.52, 1.77, 1.47, 11.35, repro,
2007-09-30,-0.64, 0.58, -7.46, 1.79, 1.46, 11.30, repro,
2007-10-01,-0.43, -0.22, -9.02, 1.80, 1.47, 11.38, repro,
2007-10-02,-1.78, -0.48, 2.83, 1.84, 1.51, 11.70, repro,
2007-10-03,-0.41, -0.09, -7.85, 1.82, 1.49, 11.57, repro,
2007-10-04,-0.42, 1.37, -13.24, 1.80, 1.49, 11.50, repro,
2007-10-05,0.28, 0.61, -3.68, 1.78, 1.47, 11.33, repro,
2007-10-06,-0.63, 0.32, -10.80, 1.79, 1.46, 11.31, repro,
2007-10-07,0.35, -0.16, -12.82, 1.78, 1.46, 11.23, repro,
2007-10-08,-0.45, 1.03, -13.55, 1.87, 1.55, 12.03, repro,
2007-10-09,1.16, 0.35, -8.60, 1.90, 1.57, 12.23, repro,
2007-10-10,-1.27, -0.88, -9.90, 1.85, 1.55, 11.76, repro,
2007-10-11,-2.57, -0.32, -12.08, 1.81, 1.48, 11.54, repro,
2007-10-12,-2.27, -1.01, -15.21, 1.84, 1.51, 11.72, repro,
2007-10-13,-1.66, 0.23, -4.43, 1.78, 1.48, 11.35, repro,
2007-10-14,-3.53, 0.61, -1.31, 1.80, 1.49, 11.62, repro,
2007-10-15,-5.13, 2.70, -7.17, 1.79, 1.49, 11.57, repro,
2007-10-16,-3.40, 1.16, -8.52, 1.76, 1.48, 11.30, repro,
2007-10-17,-2.61, 1.43, -7.96, 1.84, 1.48, 11.60, repro,
2007-10-18,-4.68, 0.71, -15.82, 1.84, 1.53, 11.68, repro,
2007-10-19,-2.90, 0.29, -7.48, 1.78, 1.49, 11.35, repro,
2007-10-20,0.40, 0.31, -2.79, 1.78, 1.49, 11.42, repro,
2007-10-21,-2.68, 0.98, -2.65, 1.77, 1.48, 11.37, repro,
2007-10-22,-2.17, 1.92, -10.40, 1.80, 1.49, 11.58, repro,
2007-10-23,-0.66, -0.75, -1.48, 1.84, 1.48, 11.57, repro,
2007-10-24,-1.91, 1.55, -10.89, 1.81, 1.49, 11.43, repro,
2007-10-25,-1.07, 2.65, -5.74, 1.91, 1.54, 12.03, repro,
2007-10-26,0.02, 1.85, -10.18, 1.86, 1.56, 11.76, repro,
2007-10-27,-2.78, 1.60, -9.58, 1.80, 1.50, 11.45, repro,
2007-10-28,0.01, 1.90, -8.25, 1.81, 1.50, 11.53, repro,
2007-10-29,-1.99, 2.79, -14.57, 1.83, 1.50, 11.51, repro,
2007-10-30,-2.85, 2.08, -16.70, 1.80, 1.49, 11.50, repro,
2007-10-31,-2.06, 2.49, -10.69, 1.79, 1.49, 11.49, repro,
2007-11-01,-1.49, 1.17, -7.33, 1.75, 1.47, 11.22, repro,
2007-11-02,-1.05, 0.23, -13.72, 1.76, 1.46, 11.28, repro,
2007-11-03,-1.16, 0.03, -5.21, 1.76, 1.45, 11.24, repro,
2007-11-04,-0.93, 0.84, -10.83, 1.78, 1.46, 11.39, repro,
2007-11-05,-0.43, -0.24, -8.72, 1.77, 1.46, 11.37, repro,
2007-11-06,-0.52, -0.79, -5.34, 1.79, 1.51, 11.54, repro,
2007-11-07,-0.89, -1.19, -8.22, 1.76, 1.47, 11.33, repro,
2007-11-08,-1.70, 1.48, -11.85, 1.79, 1.47, 11.42, repro,
2007-11-09,-1.71, 0.75, -6.48, 1.80, 1.49, 11.52, repro,
2007-11-10,-3.46, 1.56, -6.70, 1.79, 1.46, 11.33, repro,
2007-11-11,-1.09, 0.52, 0.05, 1.77, 1.47, 11.35, repro,
2007-11-12,-2.05, -2.10, -9.08, 1.76, 1.47, 11.26, repro,
2007-11-13,-0.89, -2.19, -4.93, 1.78, 1.47, 11.23, repro,
2007-11-14,-1.55, -1.54, -8.37, 1.76, 1.47, 11.25, repro,
2007-11-15,-0.19, -1.49, 2.26, 1.79, 1.48, 11.34, repro,
2007-11-16,-1.45, -1.76, -2.08, 1.79, 1.47, 11.41, repro,
2007-11-17,-1.06, -2.20, -4.68, 1.75, 1.47, 11.29, repro,
2007-11-18,-1.56, -2.36, 2.34, 1.78, 1.47, 11.30, repro,
2007-11-19,-1.14, -2.13, 3.20, 1.77, 1.46, 11.24, repro,
2007-11-20,-1.30, -1.14, 0.10, 1.83, 1.51, 11.39, repro,
2007-11-21,-3.50, -1.70, -2.86, 1.79, 1.46, 11.40, repro,
2007-11-22,0.20, -3.45, 0.52, 1.78, 1.48, 11.37, repro,
2007-11-23,-0.58, -2.61, -5.33, 1.84, 1.52, 11.60, repro,
2007-11-24,-2.52, -1.39, -5.95, 1.83, 1.51, 11.58, repro,
2007-11-25,-2.83, -0.91, -8.69, 1.79, 1.49, 11.37, repro,
2007-11-26,-2.14, 1.80, -7.69, 1.77, 1.48, 11.32, repro,
2007-11-27,-3.72, 1.84, -4.21, 1.80, 1.54, 11.64, repro,
2007-11-28,-3.83, 2.99, -12.01, 1.81, 1.53, 11.68, repro,
2007-11-29,-1.43, 2.17, -6.52, 1.77, 1.49, 11.29, repro,
2007-11-30,-3.37, 2.71, -14.02, 1.83, 1.56, 11.79, repro,
2007-12-01,-3.03, 2.29, -14.19, 1.84, 1.56, 11.73, repro,
2007-12-02,-3.89, 3.36, -12.48, 1.79, 1.50, 11.46, repro,
2007-12-03,-1.17, -1.49, -5.06, 1.84, 1.55, 11.78, repro,
2007-12-04,-0.73, 0.01, -5.68, 1.82, 1.57, 11.72, repro,
2007-12-05,0.07, -0.00, 9.92, 1.82, 1.51, 11.58, repro,
2007-12-06,-0.73, -0.35, -0.08, 1.84, 1.54, 11.75, repro,
2007-12-07,-1.94, 0.82, -1.69, 1.95, 1.67, 12.31, repro,
2007-12-08,-1.11, -0.19, -10.00, 1.86, 1.56, 11.79, repro,
2007-12-09,-1.08, 0.41, -12.91, 1.89, 1.60, 11.90, repro,
2007-12-10,1.40, -0.57, -12.30, 1.93, 1.62, 12.22, repro,
2007-12-11,-1.75, -0.11, -1.09, 1.85, 1.57, 11.81, repro,
2007-12-12,-1.64, 1.29, 4.37, 1.86, 1.62, 12.04, repro,
2007-12-13,-1.87, 1.58, -9.75, 1.80, 1.55, 11.70, repro,
2007-12-14,-1.60, 2.23, -1.73, 1.80, 1.52, 11.54, repro,
2007-12-15,-1.38, 1.61, -8.93, 1.84, 1.55, 11.79, repro,
2007-12-16,-1.77, 2.00, -4.97, 1.85, 1.55, 11.82, repro,
2007-12-17,-0.82, 2.09, -6.35, 1.94, 1.65, 12.42, repro,
2007-12-18,-0.57, 0.21, -8.02, 1.88, 1.58, 12.04, repro,
2007-12-19,-1.57, 1.83, 0.50, 1.86, 1.56, 11.92, repro,
2007-12-20,-2.10, 0.26, -7.91, 1.84, 1.54, 11.75, repro,
2007-12-21,-1.21, 0.88, -8.31, 1.89, 1.60, 12.10, repro,
2007-12-22,-0.16, -0.17, -14.21, 1.87, 1.57, 11.85, repro,
2007-12-23,-0.63, -0.37, 3.30, 1.87, 1.55, 11.92, repro,
2007-12-24,1.34, -1.13, 0.61, 1.84, 1.57, 11.80, repro,
2007-12-25,0.91, -0.81, -1.38, 1.80, 1.49, 11.44, repro,
2007-12-26,1.42, 0.19, -6.27, 1.84, 1.54, 11.69, repro,
2007-12-27,0.14, -0.94, -6.36, 1.86, 1.55, 11.95, repro,
2007-12-28,-0.95, -0.96, -7.10, 1.84, 1.53, 11.87, repro,
2007-12-29,1.69, -1.00, -6.07, 1.86, 1.55, 11.92, repro,
2007-12-30,1.43, -2.45, -5.92, 1.85, 1.53, 11.90, repro,
2007-12-31,4.25, -2.72, -8.93, 1.78, 1.49, 11.36, repro,
2008-01-01,4.19, -5.17, -6.61, 1.81, 1.52, 11.60, repro,
2008-01-02,3.12, -6.14, -4.32, 1.79, 1.51, 11.46, repro,
2008-01-03,4.44, -3.48, 3.39, 1.79, 1.48, 11.37, repro,
2008-01-04,5.44, -5.84, 11.39, 1.76, 1.48, 11.27, repro,
2008-01-05,4.17, -3.19, 4.35, 1.80, 1.49, 11.39, repro,
2008-01-06,3.57, -4.34, 6.69, 1.79, 1.47, 11.39, repro,
2008-01-07,1.82, -4.45, -2.07, 1.78, 1.47, 11.30, repro,
2008-01-08,2.91, -3.26, -6.35, 1.82, 1.54, 11.67, repro,
2008-01-09,3.57, -3.50, 1.37, 1.78, 1.51, 11.46, repro,
2008-01-10,2.12, -3.71, 2.56, 1.76, 1.46, 11.24, repro,
2008-01-11,1.64, -3.34, -8.61, 1.75, 1.45, 11.19, repro,
2008-01-12,3.99, -4.96, -3.83, 1.84, 1.47, 11.57, repro,
2008-01-13,3.70, -3.57, -10.50, 1.79, 1.46, 11.44, repro,
2008-01-14,5.11, -6.35, 0.63, 1.79, 1.48, 11.38, repro,
2008-01-15,6.06, -6.08, 1.09, 1.78, 1.48, 11.40, repro,
2008-01-16,4.87, -6.59, 2.12, 1.79, 1.50, 11.41, repro,
2008-01-17,4.46, -4.66, -3.86, 1.81, 1.52, 11.63, repro,
2008-01-18,6.27, -6.97, -5.13, 1.86, 1.51, 11.74, repro,
2008-01-19,4.32, -7.72, -14.43, 1.80, 1.48, 11.47, repro,
2008-01-20,5.64, -5.68, -14.98, 1.80, 1.49, 11.48, repro,
2008-01-21,4.31, -5.43, -6.65, 1.78, 1.49, 11.34, repro,
2008-01-22,3.07, -6.13, -7.40, 1.79, 1.53, 11.49, repro,
2008-01-23,6.65, -5.35, 7.26, 1.84, 1.51, 11.70, repro,
2008-01-24,7.06, -5.38, 0.92, 1.82, 1.51, 11.62, repro,
2008-01-25,5.49, -4.54, -3.45, 1.90, 1.64, 12.07, repro,
2008-01-26,5.60, -3.47, -3.74, 1.83, 1.59, 11.65, repro,
2008-01-27,6.90, -3.25, -5.00, 1.79, 1.50, 11.38, repro,
2008-01-28,4.46, -1.82, 0.31, 1.86, 1.54, 11.81, repro,
2008-01-29,3.67, -1.91, -0.21, 1.94, 1.58, 12.41, repro,
2008-01-30,4.23, -3.49, -19.82, 1.90, 1.61, 12.18, repro,
2008-01-31,5.24, -5.52, -1.90, 1.86, 1.60, 11.82, repro,
2008-02-01,5.63, -4.16, 8.67, 1.78, 1.51, 11.36, repro,
2008-02-02,6.73, -6.25, 12.87, 1.78, 1.50, 11.30, repro,
2008-02-03,7.54, -7.78, 18.00, 1.85, 1.56, 11.78, repro,
2008-02-04,5.93, -5.83, -0.61, 1.80, 1.48, 11.50, repro,
2008-02-05,7.25, -5.86, -5.74, 1.86, 1.53, 11.89, repro,
2008-02-06,7.70, -5.78, -1.00, 1.89, 1.59, 12.00, repro,
2008-02-07,7.51, -4.63, 3.00, 1.78, 1.49, 11.37, repro,
2008-02-08,6.83, -1.69, 0.81, 1.78, 1.46, 11.35, repro,
2008-02-09,7.47, -4.77, -4.95, 1.79, 1.50, 11.51, repro,
2008-02-10,9.09, -3.20, -13.03, 1.82, 1.51, 11.63, repro,
2008-02-11,8.81, -3.24, -9.99, 1.78, 1.48, 11.39, repro,
2008-02-12,8.26, -4.86, -10.51, 1.77, 1.49, 11.30, repro,
2008-02-13,7.15, -3.62, -7.79, 1.76, 1.46, 11.22, repro,
2008-02-14,7.36, -4.58, 3.94, 1.79, 1.47, 11.35, repro,
2008-02-15,8.20, -4.84, 6.00, 1.81, 1.53, 11.63, repro,
2008-02-16,6.31, -2.87, -3.74, 1.79, 1.48, 11.40, repro,
2008-02-17,6.95, -2.98, -8.78, 1.75, 1.46, 11.18, repro,
2008-02-18,8.39, -3.47, -0.48, 1.76, 1.46, 11.16, repro,
2008-02-19,7.75, -3.36, 7.96, 1.77, 1.46, 11.24, repro,
2008-02-20,9.16, -4.47, 4.87, 1.79, 1.47, 11.38, repro,
2008-02-21,8.75, -0.95, 17.61, 1.81, 1.47, 11.49, repro,
2008-02-22,3.80, -1.33, 2.67, 1.79, 1.47, 11.40, repro,
2008-02-23,4.69, -1.90, 4.55, 1.76, 1.46, 11.20, repro,
2008-02-24,6.04, -2.14, 3.20, 1.75, 1.46, 11.16, repro,
2008-02-25,6.00, -2.49, 8.67, 1.78, 1.47, 11.31, repro,
2008-02-26,6.20, -3.02, 4.04, 1.77, 1.48, 11.32, repro,
2008-02-27,4.72, -1.71, -4.86, 1.79, 1.47, 11.35, repro,
2008-02-28,5.88, -2.22, -9.41, 1.77, 1.48, 11.33, repro,
2008-02-29,6.28, -1.20, -5.99, 1.77, 1.49, 11.26, repro,
2008-03-01,4.99, -2.33, 3.53, 1.79, 1.48, 11.43, repro,
2008-03-02,6.93, -3.74, 3.14, 1.79, 1.47, 11.35, repro,
2008-03-03,5.74, -4.21, 0.87, 1.78, 1.47, 11.41, repro,
2008-03-04,6.01, -4.85, -6.14, 1.76, 1.44, 11.18, repro,
2008-03-05,7.82, -6.19, -0.95, 1.81, 1.48, 11.48, repro,
2008-03-06,6.55, -5.70, 2.79, 1.77, 1.44, 11.16, repro,
2008-03-07,5.72, -3.94, 10.37, 4.53, 3.45, 26.61, repro,
2008-03-08,8.20, -4.11, 8.57, 1.79, 1.48, 11.45, repro,
2008-03-09,3.48, -4.08, 1.27, 1.80, 1.47, 11.56, repro,
2008-03-10,5.25, -5.81, 9.29, 1.78, 1.47, 11.41, repro,
2008-03-11,5.28, -6.70, 7.35, 1.76, 1.46, 11.24, repro,
2008-03-12,2.22, -6.02, 3.82, 1.79, 1.45, 11.39, repro,
2008-03-13,3.49, -4.65, -6.79, 1.78, 1.46, 11.37, repro,
2008-03-14,3.62, -4.40, -6.09, 1.79, 1.48, 11.45, repro,
2008-03-15,1.94, -5.88, -17.88, 1.77, 1.47, 11.33, repro,
2008-03-16,2.71, -5.10, -9.42, 1.79, 1.46, 11.44, repro,
2008-03-17,2.21, -5.26, -19.04, 1.86, 1.53, 11.90, repro,
2008-03-18,2.67, -6.28, 3.52, 1.86, 1.52, 11.94, repro,
2008-03-19,2.91, -5.25, -11.00, 1.81, 1.49, 11.57, repro,
2008-03-20,2.98, -6.25, -0.71, 1.83, 1.50, 11.76, repro,
2008-03-21,2.22, -6.61, -8.56, 1.84, 1.49, 11.86, repro,
2008-03-22,-0.14, -5.43, -6.60, 1.82, 1.49, 11.70, repro,
2008-03-23,1.05, -5.26, 0.51, 1.83, 1.48, 11.74, repro,
2008-03-24,-0.11, -5.81, -1.17, 1.81, 1.48, 11.53, repro,
2008-03-25,1.21, -5.17, 0.39, 1.82, 1.48, 11.58, repro,
2008-03-26,0.41, -5.84, -5.34, 1.85, 1.53, 11.83, repro,
2008-03-27,-2.41, -6.59, -9.02, 1.86, 1.50, 12.01, repro,
2008-03-28,-2.01, -6.49, -8.71, 1.83, 1.50, 11.72, repro,
2008-03-29,-0.90, -3.88, -11.15, 1.81, 1.47, 11.52, repro,
2008-03-30,-2.21, -6.34, -17.56, 1.78, 1.46, 11.41, repro,
2008-03-31,-3.11, -4.10, -16.94, 1.80, 1.46, 11.57, repro,
2008-04-01,-3.81, -4.56, -23.89, 1.80, 1.47, 11.58, repro,
2008-04-02,-5.23, -2.99, -31.91, 1.84, 1.50, 11.86, repro,
2008-04-03,-4.67, -6.55, -18.50, 1.80, 1.47, 11.59, repro,
2008-04-04,-2.36, -6.02, -17.15, 1.83, 1.49, 11.67, repro,
2008-04-05,-2.88, -5.38, -12.10, 1.77, 1.47, 11.41, repro,
2008-04-06,-4.86, -3.31, -23.54, 1.78, 1.47, 11.47, repro,
2008-04-07,-6.08, -3.97, -23.16, 1.79, 1.47, 11.54, repro,
2008-04-08,-7.15, -4.74, -28.79, 1.80, 1.47, 11.56, repro,
2008-04-09,-4.94, -3.55, -12.45, 1.79, 1.46, 11.42, repro,
2008-04-10,-5.78, -5.90, -22.31, 1.78, 1.46, 11.39, repro,
2008-04-11,-7.07, -4.90, -19.74, 1.78, 1.46, 11.42, repro,
2008-04-12,-5.50, -5.43, -23.70, 1.78, 1.46, 11.43, repro,
2008-04-13,-6.60, -5.39, -23.33, 1.81, 1.47, 11.62, repro,
2008-04-14,-6.10, -5.41, -12.24, 1.76, 1.45, 11.28, repro,
2008-04-15,-4.04, -5.24, -1.63, 1.81, 1.50, 11.55, repro,
2008-04-16,-6.34, -5.24, -0.82, 1.83, 1.50, 11.69, repro,
2008-04-17,-5.52, -4.85, -6.68, 1.77, 1.47, 11.48, repro,
2008-04-18,-6.53, -4.96, -14.50, 1.80, 1.47, 11.61, repro,
2008-04-19,-7.21, -5.91, -24.02, 1.78, 1.47, 11.48, repro,
2008-04-20,0.29, -2.34, -29.18, 1.80, 1.51, 11.56, repro,
2008-04-21,0.65, 0.23, -25.82, 1.77, 1.47, 11.40, repro,
2008-04-22,2.42, 0.63, -27.33, 1.79, 1.46, 11.47, repro,
2008-04-23,1.75, 0.55, -32.06, 1.80, 1.52, 11.64, repro,
2008-04-24,0.79, -0.69, -29.41, 1.81, 1.51, 11.74, repro,
2008-04-25,-1.26, -0.51, -27.54, 1.76, 1.47, 11.35, repro,
2008-04-26,-0.19, -0.23, -24.21, 1.84, 1.48, 11.63, repro,
2008-04-27,1.90, 0.59, -20.44, 1.84, 1.47, 11.71, repro,
2008-04-28,1.46, 0.46, -22.23, 1.84, 1.48, 11.78, repro,
2008-04-29,-0.20, -1.76, -23.43, 1.85, 1.51, 11.87, repro,
2008-04-30,-1.66, 0.47, -31.80, 1.79, 1.50, 11.47, repro,
2008-05-01,-1.89, -0.89, -37.95, 1.77, 1.48, 11.40, repro,
2008-05-02,0.35, 0.66, -35.46, 1.77, 1.46, 11.37, repro,
2008-05-03,-1.57, 1.40, -25.47, 1.77, 1.46, 11.35, repro,
2008-05-04,0.93, -0.06, -25.98, 1.81, 1.47, 11.64, repro,
2008-05-05,-1.59, 0.47, -27.91, 1.75, 1.46, 11.27, repro,
2008-05-06,-1.28, -0.84, -26.70, 1.76, 1.47, 11.35, repro,
2008-05-07,-2.01, -0.60, -37.13, 1.76, 1.46, 11.29, repro,
2008-05-08,-1.61, 0.56, -25.92, 1.77, 1.46, 11.37, repro,
2008-05-09,-1.83, 0.26, -24.75, 1.78, 1.46, 11.43, repro,
2008-05-10,-0.44, -0.51, -16.27, 1.78, 1.48, 11.42, repro,
2008-05-11,-1.16, 0.52, -19.39, 1.76, 1.48, 11.38, repro,
2008-05-12,-4.44, 2.36, -21.31, 1.76, 1.47, 11.32, repro,
2008-05-13,-1.69, 1.23, -17.53, 1.77, 1.46, 11.40, repro,
2008-05-14,-0.55, 0.31, -15.97, 1.78, 1.47, 11.44, repro,
2008-05-15,-0.87, -0.62, -20.71, 1.76, 1.46, 11.30, repro,
2008-05-16,0.05, 0.69, -20.96, 1.77, 1.47, 11.39, repro,
2008-05-17,-0.47, -0.07, -14.64, 1.75, 1.47, 11.29, repro,
2008-05-18,-1.12, 1.60, -21.56, 1.79, 1.48, 11.47, repro,
2008-05-19,-1.32, 0.44, -28.84, 1.77, 1.46, 11.34, repro,
2008-05-20,-1.15, 0.17, -20.35, 1.76, 1.47, 11.37, repro,
2008-05-21,-1.12, 0.98, -22.69, 1.77, 1.48, 11.39, repro,
2008-05-22,-0.03, 1.38, -12.50, 1.81, 1.51, 11.65, repro,
2008-05-23,-0.25, 0.71, -22.59, 1.81, 1.51, 11.64, repro,
2008-05-24,-2.10, 2.46, -24.05, 1.76, 1.46, 11.28, repro,
2008-05-25,-1.58, 1.90, -28.84, 1.76, 1.45, 11.25, repro,
2008-05-26,-0.23, 0.74, -18.99, 1.76, 1.48, 11.34, repro,
2008-05-27,0.86, 1.25, -17.83, 1.76, 1.48, 11.28, repro,
2008-05-28,1.44, 0.80, -10.48, 1.79, 1.48, 11.51, repro,
2008-05-29,0.59, 0.91, -11.90, 1.78, 1.48, 11.46, repro,
2008-05-30,2.07, 0.06, -19.30, 1.78, 1.48, 11.33, repro,
2008-05-31,2.29, -0.77, -12.47, 1.79, 1.48, 11.49, repro,
2008-06-01,2.39, -1.36, -13.29, 1.77, 1.49, 11.42, repro,
2008-06-02,3.85, -1.07, -4.10, 1.78, 1.48, 11.40, repro,
2008-06-03,3.05, 0.23, -13.73, 1.83, 1.52, 11.74, repro,
2008-06-04,0.61, 2.21, -20.24, 1.77, 1.47, 11.26, repro,
2008-06-05,0.70, 1.11, -19.53, 1.77, 1.47, 11.32, repro,
2008-06-06,-0.58, 0.71, -16.08, 1.79, 1.51, 11.46, repro,
2008-06-07,-0.21, 3.15, -6.27, 1.82, 1.55, 11.74, repro,
2008-06-08,-0.22, 1.05, -10.02, 1.82, 1.52, 11.63, repro,
2008-06-09,-0.09, 2.41, -14.40, 1.81, 1.51, 11.60, repro,
2008-06-10,0.57, 0.90, -14.89, 1.79, 1.48, 11.42, repro,
2008-06-11,1.03, 0.76, -8.20, 1.76, 1.47, 11.27, repro,
2008-06-12,0.09, 0.33, -17.42, 1.79, 1.51, 11.54, repro,
2008-06-13,2.48, 0.48, -13.58, 1.77, 1.47, 11.31, repro,
2008-06-14,0.70, 0.09, -12.37, 1.84, 1.48, 11.76, repro,
2008-06-15,0.94, 0.06, -19.59, 1.84, 1.49, 11.78, repro,
2008-06-16,1.52, 0.44, -17.56, 1.77, 1.48, 11.35, repro,
2008-06-17,0.06, 2.15, -20.60, 1.75, 1.47, 11.18, repro,
2008-06-18,2.33, 1.03, -19.65, 1.78, 1.49, 11.33, repro,
2008-06-19,1.89, 1.32, -12.03, 1.83, 1.53, 11.62, repro,
2008-06-20,1.79, 0.38, -8.00, 1.81, 1.48, 11.39, repro,
2008-06-21,3.41, -0.22, -6.20, 1.86, 1.59, 11.42, repro,
2008-06-22,1.20, 0.98, -29.06, 1.78, 1.48, 11.34, repro,
2008-06-23,2.68, 0.90, -16.39, 1.77, 1.48, 11.28, repro,
2008-06-24,2.74, 1.11, -17.97, 1.77, 1.48, 11.22, repro,
2008-06-25,3.99, 1.25, -16.70, 1.77, 1.48, 11.23, repro,
2008-06-26,2.13, 0.40, -19.11, 1.90, 1.54, 12.16, repro,
2008-06-27,0.26, 1.12, -20.52, 1.78, 1.49, 11.50, repro,
2008-06-28,0.17, 1.61, -22.58, 1.81, 1.49, 11.70, repro,
2008-06-29,1.99, 1.05, -18.48, 1.74, 1.47, 11.12, repro,
2008-06-30,2.37, 1.42, -17.30, 1.76, 1.48, 11.22, repro,
2008-07-01,2.43, 1.52, -18.52, 1.79, 1.47, 11.33, repro,
2008-07-02,1.50, 1.00, -20.32, 1.77, 1.48, 11.39, repro,
2008-07-03,0.91, 1.25, -23.33, 1.78, 1.47, 11.34, repro,
2008-07-04,1.65, 1.56, -15.36, 1.75, 1.47, 11.20, repro,
2008-07-05,3.64, 1.49, -20.62, 1.76, 1.48, 11.28, repro,
2008-07-06,2.68, 1.03, -14.55, 1.77, 1.48, 11.31, repro,
2008-07-07,1.08, 1.93, -11.25, 1.80, 1.47, 11.42, repro,
2008-07-08,0.07, 0.06, -10.18, 1.77, 1.49, 11.41, repro,
2008-07-09,2.23, -0.14, -4.67, 1.78, 1.47, 11.33, repro,
2008-07-10,2.16, 0.27, -12.18, 1.80, 1.49, 11.63, repro,
2008-07-11,0.11, -0.50, -8.15, 1.82, 1.49, 11.65, repro,
2008-07-12,1.75, -1.45, -3.58, 1.79, 1.47, 11.39, repro,
2008-07-13,1.47, 0.60, -3.02, 1.78, 1.48, 11.39, repro,
2008-07-14,2.68, 1.40, -2.15, 1.77, 1.47, 11.34, repro,
2008-07-15,1.31, 1.66, -4.15, 1.77, 1.48, 11.32, repro,
2008-07-16,2.35, 1.14, -1.32, 1.77, 1.48, 11.33, repro,
2008-07-17,0.87, 0.67, 2.80, 1.76, 1.46, 11.23, repro,
2008-07-18,0.16, -1.39, -7.63, 1.81, 1.54, 11.54, repro,
2008-07-19,1.18, 2.35, 4.03, 1.81, 1.54, 11.57, repro,
2008-07-20,1.84, -0.13, 6.55, 1.77, 1.46, 11.24, repro,
2008-07-21,0.65, 0.97, -11.15, 1.81, 1.51, 11.65, repro,
2008-07-22,0.77, 1.29, -6.70, 1.76, 1.46, 11.23, repro,
2008-07-23,-0.44, 2.68, -9.00, 1.79, 1.50, 11.48, repro,
2008-07-24,0.50, 0.03, -8.67, 1.80, 1.47, 11.51, repro,
2008-07-25,1.65, -0.11, 4.17, 1.75, 1.46, 11.17, repro,
2008-07-26,0.87, 0.71, -2.78, 1.77, 1.48, 11.36, repro,
2008-07-27,0.48, 0.30, -11.16, 1.82, 1.53, 11.36, repro,
2008-07-28,-0.25, -0.52, -10.63, 1.81, 1.50, 11.61, repro,
2008-07-29,1.03, -1.00, -17.50, 1.83, 1.49, 11.71, repro,
2008-07-30,-0.39, -0.91, -15.86, 1.91, 1.59, 11.86, repro,
2008-07-31,-0.10, 0.70, -3.43, 1.78, 1.47, 11.36, repro,
2008-08-01,-0.07, 2.66, -12.67, 1.77, 1.48, 11.39, repro,
2008-08-02,0.25, -0.88, -9.48, 1.78, 1.48, 11.39, repro,
2008-08-03,-1.13, -0.36, -14.66, 1.79, 1.52, 11.41, repro,
2008-08-04,1.06, -0.85, -9.84, 1.83, 1.54, 11.42, repro,
2008-08-05,1.03, -0.33, 0.74, 1.76, 1.47, 11.21, repro,
2008-08-06,-1.04, 0.42, -5.47, 1.78, 1.50, 11.47, repro,
2008-08-07,-1.89, 0.32, -15.70, 1.84, 1.53, 11.79, repro,
2008-08-08,0.53, 0.05, -9.71, 1.86, 1.55, 11.92, repro,
2008-08-09,-1.56, 0.71, -17.92, 1.80, 1.51, 11.55, repro,
2008-08-10,-0.69, -0.73, -4.15, 1.80, 1.49, 11.55, repro,
2008-08-11,0.71, -2.62, 2.22, 1.78, 1.49, 11.42, repro,
2008-08-12,-0.11, -2.73, -8.27, 1.84, 1.56, 11.57, repro,
2008-08-13,-0.96, -0.32, -3.76, 1.84, 1.57, 11.64, repro,
2008-08-14,0.75, -0.11, 1.16, 1.78, 1.49, 11.46, repro,
2008-08-15,0.49, 0.42, -4.21, 1.84, 1.57, 11.45, repro,
2008-08-16,1.20, 0.17, 5.09, 1.79, 1.48, 11.48, repro,
2008-08-17,-0.26, 0.47, -2.69, 1.79, 1.53, 11.35, repro,
2008-08-18,-2.11, 1.13, -7.07, 1.82, 1.52, 11.66, repro,
2008-08-19,0.15, 0.27, 2.65, 1.80, 1.51, 11.59, repro,
2008-08-20,-0.38, 1.34, 2.09, 1.79, 1.49, 11.46, repro,
2008-08-21,0.21, -0.71, 5.57, 1.80, 1.50, 11.49, repro,
2008-08-22,-1.15, 0.28, 1.95, 1.80, 1.49, 11.51, repro,
2008-08-23,-0.83, 1.27, 1.87, 1.78, 1.48, 11.45, repro,
2008-08-24,-1.17, 0.55, -3.85, 1.83, 1.52, 11.79, repro,
2008-08-25,0.55, 0.48, 0.16, 1.80, 1.51, 11.55, repro,
2008-08-26,-1.08, 0.98, -5.41, 1.80, 1.50, 11.53, repro,
2008-08-27,-0.70, -0.48, 3.46, 1.83, 1.53, 11.84, repro,
2008-08-28,-1.91, 0.63, -2.52, 1.87, 1.54, 12.01, repro,
2008-08-29,-2.21, 0.39, -10.56, 1.81, 1.52, 11.74, repro,
2008-08-30,-0.73, 0.50, -2.16, 1.81, 1.53, 11.72, repro,
2008-08-31,-0.25, 1.01, -9.45, 1.83, 1.52, 11.74, repro,
2008-09-01,-1.76, -0.43, -4.21, 1.84, 1.52, 11.83, repro,
2008-09-02,0.37, -1.16, 6.63, 1.81, 1.51, 11.73, repro,
2008-09-03,-0.72, -0.29, 4.27, 1.82, 1.53, 11.83, repro,
2008-09-04,-0.53, -1.42, 4.41, 1.93, 1.66, 12.48, repro,
2008-09-05,1.05, -0.61, 0.78, 1.83, 1.54, 11.85, repro,
2008-09-06,1.03, -0.96, 1.33, 1.82, 1.52, 11.74, repro,
2008-09-07,3.31, -1.56, 3.10, 1.90, 1.62, 11.81, repro,
2008-09-08,1.01, -0.24, 5.38, 1.82, 1.52, 11.80, repro,
2008-09-09,-1.35, -0.32, -8.01, 1.81, 1.52, 11.79, repro,
2008-09-10,1.70, -0.84, -1.52, 1.80, 1.52, 11.64, repro,
2008-09-11,-0.54, -0.80, -2.92, 1.81, 1.51, 11.68, repro,
2008-09-12,1.55, -0.85, 2.07, 1.84, 1.54, 11.91, repro,
2008-09-13,-0.15, -1.94, 4.85, 1.80, 1.52, 11.64, repro,
2008-09-14,0.22, -0.38, -0.83, 1.82, 1.51, 11.71, repro,
2008-09-15,2.26, -1.83, -3.95, 1.81, 1.53, 11.75, repro,
2008-09-16,0.05, -1.30, -7.99, 1.80, 1.53, 11.63, repro,
2008-09-17,2.54, -3.43, -4.28, 1.87, 1.57, 11.95, repro,
2008-09-18,2.02, -1.32, -1.34, 1.78, 1.48, 11.57, repro,
2008-09-19,-0.06, -2.43, -4.40, 1.78, 1.48, 11.47, repro,
2008-09-20,0.13, -2.89, -12.45, 1.81, 1.50, 11.65, repro,
2008-09-21,1.81, -2.54, -12.86, 1.80, 1.48, 11.58, repro,
2008-09-22,-0.31, -3.85, -11.53, 1.77, 1.49, 11.39, repro,
2008-09-23,1.72, -1.88, -8.85, 1.78, 1.47, 11.43, repro,
2008-09-24,1.38, -2.13, -8.19, 1.78, 1.48, 11.47, repro,
2008-09-25,1.26, 0.01, -17.44, 1.78, 1.48, 11.43, repro,
2008-09-26,1.38, -2.63, -8.74, 1.81, 1.49, 11.68, repro,
2008-09-27,-0.73, -1.31, -8.81, 1.78, 1.49, 11.49, repro,
2008-09-28,-2.09, -1.59, -10.65, 1.78, 1.49, 11.52, repro,
2008-09-29,0.65, -2.05, -7.08, 1.78, 1.48, 11.53, repro,
2008-09-30,0.78, -1.65, -10.78, 1.78, 1.48, 11.47, repro,
2008-10-01,-0.29, -0.71, -15.66, 1.81, 1.50, 11.69, repro,
2008-10-02,0.81, -1.77, -14.57, 1.80, 1.51, 11.59, repro,
2008-10-03,-0.05, -0.76, -15.70, 1.80, 1.49, 11.56, repro,
2008-10-04,0.66, -0.62, -1.73, 1.78, 1.49, 11.48, repro,
2008-10-05,-0.62, -1.51, -5.55, 1.77, 1.48, 11.44, repro,
2008-10-06,1.35, -0.36, -9.45, 1.78, 1.47, 11.47, repro,
2008-10-07,2.00, 0.19, -1.49, 1.82, 1.48, 11.69, repro,
2008-10-08,0.40, -3.71, 2.12, 1.85, 1.52, 11.89, repro,
2008-10-09,1.92, -1.63, -3.68, 1.75, 1.46, 11.26, repro,
2008-10-10,1.22, -1.03, -7.71, 1.75, 1.46, 11.35, repro,
2008-10-11,-0.62, 1.09, -7.43, 1.80, 1.49, 11.44, repro,
2008-10-12,0.85, 0.81, -8.56, 1.78, 1.48, 11.39, repro,
2008-10-13,0.66, -0.57, -12.12, 1.73, 1.47, 11.16, repro,
2008-10-14,1.67, -2.08, -9.99, 1.75, 1.48, 11.33, repro,
2008-10-15,0.85, -2.04, -9.34, 1.77, 1.51, 11.48, repro,
2008-10-16,2.69, -2.55, -4.08, 1.77, 1.51, 11.42, repro,
2008-10-17,3.00, -2.13, -5.88, 1.74, 1.46, 11.21, repro,
2008-10-18,1.49, -0.21, -15.40, 1.75, 1.46, 11.31, repro,